TimeEST,TemperatureF,Dew PointF,Humidity,Sea Level PressureIn,VisibilityMPH,Wind Direction,Wind SpeedMPH,Gust SpeedMPH,PrecipitationIn,Events,Conditions,WindDirDegrees,DateUTC
12:53 AM,72.0,64.9,78,29.94,10.0,SE,8.1,-,N/A,,Mostly Cloudy,130,2012-12-26 05:53:00
1:53 AM,73.0,66.0,79,29.92,10.0,SSE,11.5,-,N/A,,Mostly Cloudy,150,2012-12-26 06:53:00
2:53 AM,73.0,66.9,81,29.93,10.0,SSE,6.9,-,N/A,,Mostly Cloudy,160,2012-12-26 07:53:00
3:53 AM,73.0,66.9,81,29.93,10.0,SSE,5.8,-,N/A,,Mostly Cloudy,150,2012-12-26 08:53:00
4:53 AM,72.0,66.9,84,29.94,10.0,SSE,4.6,-,N/A,,Mostly Cloudy,160,2012-12-26 09:53:00
5:53 AM,72.0,68.0,87,29.96,10.0,South,4.6,-,N/A,,Mostly Cloudy,190,2012-12-26 10:53:00
6:53 AM,72.0,68.0,87,29.96,10.0,SSE,5.8,-,N/A,,Mostly Cloudy,150,2012-12-26 11:53:00
7:53 AM,72.0,69.1,91,29.96,10.0,South,5.8,-,N/A,,Scattered Clouds,170,2012-12-26 12:53:00
8:53 AM,75.9,70.0,82,29.97,10.0,South,10.4,-,N/A,,Mostly Cloudy,170,2012-12-26 13:53:00
9:53 AM,78.1,69.1,74,29.97,10.0,SSW,11.5,21.9,N/A,,Mostly Cloudy,200,2012-12-26 14:53:00
10:53 AM,81.0,69.1,67,29.96,10.0,SSW,10.4,19.6,N/A,,Mostly Cloudy,200,2012-12-26 15:53:00
11:53 AM,82.0,68.0,62,29.94,10.0,SW,12.7,18.4,N/A,,Mostly Cloudy,220,2012-12-26 16:53:00
12:53 PM,82.9,68.0,60,29.91,10.0,SSW,13.8,23.0,N/A,,Mostly Cloudy,210,2012-12-26 17:53:00
1:53 PM,82.0,66.9,60,29.89,10.0,WSW,13.8,26.5,N/A,,Mostly Cloudy,240,2012-12-26 18:53:00
2:53 PM,82.0,70.0,67,29.88,10.0,SSW,15.0,20.7,N/A,,Scattered Clouds,210,2012-12-26 19:53:00
3:53 PM,81.0,69.1,67,29.88,10.0,SW,12.7,21.9,N/A,,Scattered Clouds,220,2012-12-26 20:53:00
4:53 PM,79.0,69.1,72,29.89,10.0,SW,11.5,23.0,N/A,,Scattered Clouds,230,2012-12-26 21:53:00
5:53 PM,78.1,69.1,74,29.90,10.0,SW,11.5,21.9,N/A,,Scattered Clouds,230,2012-12-26 22:53:00
6:53 PM,75.9,70.0,82,29.91,10.0,SW,9.2,-,N/A,,Scattered Clouds,220,2012-12-26 23:53:00
7:53 PM,75.0,71.1,87,29.93,10.0,SW,6.9,-,N/A,,Partly Cloudy,230,2012-12-27 00:53:00
8:53 PM,70.0,64.9,84,29.97,10.0,WNW,8.1,-,0.00,,Partly Cloudy,300,2012-12-27 01:53:00
9:53 PM,69.1,64.9,87,29.99,10.0,WNW,8.1,-,N/A,,Partly Cloudy,300,2012-12-27 02:53:00
10:53 PM,68.0,63.0,84,30.00,10.0,WNW,9.2,-,N/A,,Partly Cloudy,300,2012-12-27 03:53:00
11:20 PM,68.0,62.6,83,30.00,8.0,NW,8.1,-,N/A,,Mostly Cloudy,320,2012-12-27 04:20:00
11:53 PM,66.0,60.1,81,30.01,8.0,NW,10.4,-,N/A,,Mostly Cloudy,310,2012-12-27 04:53:00